Alamosa, CO

10:38 PM MST on November 18, 2017 (GMT -0700)
San Luis Valley Regional / Bergman Field

Weather History for KALS - May, 2014

Change the Weather History Date:

Thursday, May 15, 2014

  Actual Average Record
Temperature  
Mean Temperature 46 °F 51 °F  
Max Temperature 66 °F 69 °F 82 °F (1988)
Min Temperature 26 °F 33 °F 19 °F (1998)
Degree Days  
Heating Degree Days 19 14  
Month to date heating degree days 294 241  
Since 1 July heating degree days 8403 8241  
Cooling Degree Days 0 0  
Month to date cooling degree days 0 0  
Year to date cooling degree days 0 0  
Moisture  
Dew Point 21 °F    
Average Humidity 46    
Maximum Humidity 75    
Minimum Humidity 17    
Precipitation  
Precipitation 0.00 in 0.02 in 0.52 in (1980)
Month to date precipitation 0.10 0.31  
Year to date precipitation 1.68 1.95  
Snow  
Snow 0.00 in 0.00 in 0.30 in (1980)
Month to date snowfall 1.3 0.8  
Since 1 July snowfall 39.8 27.5  
Snow Depth 0.00 in    
Sea Level Pressure  
Sea Level Pressure 30.22 in    
Wind  
Wind Speed 8 mph (NW)    
Max Wind Speed 25 mph    
Max Gust Speed 32 mph    
Visibility 10 miles    
Events      
T = Trace of Precipitation, MM = Missing Value Source: NWS Daily Summary

Daily Weather History Graph

Daily Weather History Graph

Search for Another Location

Airport or City:

Trip Planner

Search our weather history database for the weather conditions in past years. The results will help you decide how hot, cold, wet, or windy it might be!

Date:

Astronomy

May. 15, 2014 Rise Set
Actual Time 5:54 AM MDT 8:05 PM MDT
Civil Twilight 5:25 AM MDT 8:35 PM MDT
Nautical Twilight 4:49 AM MDT 9:10 PM MDT
Astronomical Twilight 4:10 AM MDT 9:50 PM MDT
Moon 9:16 PM MDT (5/15) 6:43 AM MDT (5/15)
Length of Visible Light 15h 09m
Length of Day
14h 11m
Full, 99% of the Moon is Illuminated
May 15
Full
May 21
Last Quarter
May 28
New
Jun 5
First Quarter
Jun 12
Full

Hourly Weather History & Observations

Time (MDT) Temp. Windchill Dew Point Humidity Pressure Visibility Wind Dir Wind Speed Gust Speed Precip Events Conditions
12:52 AM 30.0 °F 22.4 °F 19.9 °F 66% 30.32 in 10.0 mi SW 8.1 mph - N/A   Clear
1:52 AM 30.0 °F 24.1 °F 18.0 °F 61% 30.30 in 10.0 mi WSW 5.8 mph - N/A   Clear
2:52 AM 28.9 °F 23.9 °F 19.0 °F 67% 30.30 in 10.0 mi WSW 4.6 mph - N/A   Clear
3:52 AM 28.9 °F - 19.0 °F 67% 30.29 in 10.0 mi Calm Calm - N/A   Overcast
4:52 AM 28.9 °F 25.2 °F 19.9 °F 69% 30.27 in 10.0 mi South 3.5 mph - N/A   Clear
5:52 AM 28.0 °F 22.8 °F 19.9 °F 72% 30.28 in 10.0 mi SSE 4.6 mph - N/A   Scattered Clouds
6:52 AM 28.9 °F - 21.0 °F 72% 30.28 in 10.0 mi Calm Calm - N/A   Mostly Cloudy
7:52 AM 37.0 °F - 24.1 °F 59% 30.27 in 10.0 mi Calm Calm - N/A   Overcast
8:52 AM 44.6 °F 41.4 °F 21.2 °F 39% 30.36 in 10.0 mi NW 5.8 mph - N/A   Mostly Cloudy
9:52 AM 48.9 °F - 18.0 °F 29% 30.25 in 10.0 mi NW 4.6 mph - N/A   Clear
10:52 AM 54.0 °F - 19.0 °F 25% 30.24 in 10.0 mi North 8.1 mph - N/A   Clear
11:52 AM 55.9 °F - 19.9 °F 25% 30.22 in 10.0 mi North - - N/A   Clear
1:52 PM 60.1 °F - 19.0 °F 20% 30.17 in 10.0 mi West 11.5 mph - N/A   Overcast
2:52 PM 63.0 °F - 18.0 °F 18% 30.15 in 10.0 mi NW 16.1 mph 27.6 mph N/A   Mostly Cloudy
3:17 PM 62.1 °F - 18.0 °F 18% 30.26 in 10.0 mi NNW 12.7 mph 25.3 mph N/A   Mostly Cloudy
3:52 PM 61.0 °F - 17.1 °F 18% 30.14 in 10.0 mi WNW 12.7 mph - N/A   Mostly Cloudy
4:52 PM 63.0 °F - 18.0 °F 18% 30.12 in 10.0 mi NNW 17.3 mph 25.3 mph N/A   Mostly Cloudy
5:52 PM 62.1 °F - 18.0 °F 18% 30.13 in 10.0 mi North 17.3 mph 27.6 mph N/A   Scattered Clouds
6:52 PM 61.0 °F - 21.0 °F 21% 30.13 in 10.0 mi NNW 19.6 mph - N/A   Clear
7:52 PM 55.9 °F - 23.0 °F 28% 30.13 in 10.0 mi NNW 11.5 mph - N/A   Clear
8:52 PM 53.1 °F - 24.1 °F 32% 30.14 in 10.0 mi NNW 13.8 mph - N/A   Clear
9:52 PM 51.1 °F - 25.0 °F 36% 30.14 in 10.0 mi NNW 8.1 mph - N/A   Clear
10:52 PM 46.0 °F 41.9 °F 26.1 °F 46% 30.15 in 10.0 mi NW 8.1 mph - N/A   Clear
11:52 PM 41.0 °F 38.0 °F 26.6 °F 57% 30.30 in 10.0 mi SE 4.6 mph - N/A   Clear